Regional Weather Roundup
Issued by NWS Northern Indiana

Home | Current Version | Previous Version | Graphics & Text | Print | Product List | Glossary On
Versions: 1 2 3 4 5 6 7 8 9 10 11 12 13 14 15 16 17 18 19 20 21 22 23 24 25 26 27 28 29 30 31 32 33 34 35 36 37 38 39 40 41 42 43 44 45 46 47 48 49 50
000
ASUS43 KIWX 300600
RWRIWX

KIWX WEATHER ROUNDUP
NATIONAL WEATHER SERVICE NORTHERN INDIANA
200 AM EDT SAT JUL 30 2016

NOTE: "FAIR" INDICATES FEW OR NO CLOUDS BELOW 12,000 FEET WITH NO
SIGNIFICANT WEATHER AND/OR OBSTRUCTIONS TO VISIBILITY.

* THESE STATIONS ARE NOT UNDER NWS QUALITY CONTROL. THEY ALSO MAY NOT
  REPORT WEATHER SUCH AS PRECIPITATION OR FOG.

INZ001>027-300700-
NORTHERN INDIANA

CITY           SKY/WX    TMP DP  RH WIND       PRES   REMARKS
KNOX*            N/A     64  63  94 CALM      29.93S VSB 1/4
SOUTH BEND     CLEAR     68  65  90 E5        29.95S
6HR MIN TEMP:  68; 6HR MAX TEMP:  72;

GOSHEN         CLOUDY    68  64  87 NE5       29.95S
6HR MIN TEMP:  67; 6HR MAX TEMP:  77;

MONTICELLO*    PTCLDY    68  64  88 CALM      29.92S
6HR MIN TEMP:  68; 6HR MAX TEMP:  78;

WARSAW*        CLOUDY    68  68 100 E9        29.94S
ANGOLA*        CLOUDY    68  59  73 NE7       29.96S
FORT WAYNE     CLOUDY    70  68  93 NE7       29.94R FOG
6HR MIN TEMP:  68; 6HR MAX TEMP:  71; 6HR PCP:  0.01;

PERU/GRISSOM   CLOUDY    68  68 100 NE6       29.92R FOG

$$
INZ028>050-300700-
CENTRAL INDIANA

CITY           SKY/WX    TMP DP  RH WIND       PRES   REMARKS
LAFAYETTE      MOCLDY    69  69 100 NE5       29.91S
6HR MIN TEMP:  68; 6HR MAX TEMP:  79;

KOKOMO*        CLOUDY    68  63  83 CALM      29.93S VSB 1/4
6HR MIN TEMP:  66; 6HR MAX TEMP:  73;

MUNCIE*        MOCLDY    68  66  93 SE5       29.92F FOG
6HR MIN TEMP:  68; 6HR MAX TEMP:  73; 6HR PCP:  0.07;

INDIANAPOLIS   PTCLDY    71  67  87 S3        29.92S
6HR MIN TEMP:  71; 6HR MAX TEMP:  80;


$$
MIZ043>046-050>051-056>058-064>065-071>073-077>080-300700-
SOUTHWEST LOWER MICHIGAN

CITY           SKY/WX    TMP DP  RH WIND       PRES   REMARKS
BATTLE CREEK   LGT RAIN  64  60  87 NE8       29.98F
6HR MIN TEMP:  64; 6HR MAX TEMP:  72; 6HR PCP:  0.01;

BENTON HARBOR  CLOUDY    68  62  81 E7        29.95S
6HR MIN TEMP:  68; 6HR MAX TEMP:  72; 6HR PCP:  0.16;

COLDWATER*     CLOUDY    69  68  98 NE3       29.96F
6HR MIN TEMP:  68; 6HR MAX TEMP:  75;

HILLSDALE*     CLOUDY    66  64  90 CALM      29.97R
6HR MIN TEMP:  59; 6HR MAX TEMP:  87; 6HR PCP:  0.32;

HOLLAND        CLOUDY    65  59  81 NE9       29.99S
6HR MIN TEMP:  65; 6HR MAX TEMP:  74; 6HR PCP:  0.01;

GRAND RAPIDS   CLOUDY    63  58  83 NE14      30.01S
6HR MIN TEMP:  63; 6HR MAX TEMP:  72; 6HR PCP:  0.07;

KALAMAZOO      CLOUDY    69  59  70 CALM      29.97S
6HR MIN TEMP:  69; 6HR MAX TEMP:  74; 6HR PCP: TRACE;

STURGIS*       CLOUDY    67  67  97 E3        29.95F FOG
6HR MIN TEMP:  66; 6HR MAX TEMP:  74; 6HR PCP:  0.01;

THREE RIVERS*  CLOUDY    69  66  89 E3        29.96F
6HR MIN TEMP:  69; 6HR MAX TEMP:  75;


$$
OHZ001>008-015>018-024>025-300700-
NORTHWEST OHIO

CITY           SKY/WX    TMP DP  RH WIND       PRES   REMARKS
DEFIANCE       CLOUDY    72  68  87 NE8       29.94F
6HR MIN TEMP:  72; 6HR MAX TEMP:  74; 6HR PCP:  0.17;

FINDLAY        CLOUDY    73  67  81 NE6       29.93S
6HR MIN TEMP:  72; 6HR MAX TEMP:  75; 6HR PCP:  0.05;

TOLEDO EXPRESS CLOUDY    69  66  90 NE7       29.95F
6HR MIN TEMP:  69; 6HR MAX TEMP:  74; 6HR PCP: TRACE;

TOLEDO METCALF CLOUDY    73  68  84 NE7       29.96F
6HR MIN TEMP:  72; 6HR MAX TEMP:  78;

LIMA           CLOUDY    71  70  96 CALM      29.94S
6HR MIN TEMP:  70; 6HR MAX TEMP:  75; 6HR PCP:  0.01;


$$
AND FOR LAKE MICHIGAN COASTAL AND OPEN LAKE BUOY OBSERVATIONS

STATION/POSITION TEMP    WIND        PRES    VSBY  WAVE
                 AIR SEA DIR/SP/G                  HT/PER
                 (F)     (DEG/KT/KT) (MB)    (MI)  (FT/S)
CALUMET HARBOR    73      40/  7/ 13 1013.6R
MICHIGAN CITY     70      40/  8/  9   N/A
BURNS HARBOR      71      70/  7/ 11 1014.2S
SAINT JOSEPH      68      30/  3/  5 1014.9R
SOUTH LAKE BUOY   72 74   90/ 16/ 19 1014.0          3/ 4
4 MI NW BRIDGMAN  70 74   70/ 12/ 16 1013.7S         2
MICHIGAN CITY     73 76   70/ 14/ 17   N/A           3/ 3

$$
&&



USA.gov is the U.S. government's official web portal to all federal, state and local government web resources and services.